Stations météo

réclame
Mon MeteoGroup
Barth, Allemagne (10180): Température de l'air & dewpoint: 19.02.2018 10:00:00 - 25.02.2018 10:00:00 (CET)Barth, Allemagne (10180): Température de l'air 5cm & Température de l'air -5cm: 19.02.2018 10:00:00 - 25.02.2018 10:00:00 (CET)Barth, Allemagne (10180): Température de l'air -20cm & Température de l'air -100cm: 19.02.2018 10:00:00 - 25.02.2018 10:00:00 (CET)Barth, Allemagne (10180): Vitesse du vent & gusts: 19.02.2018 10:00:00 - 25.02.2018 10:00:00 (CET)Barth, Allemagne (10180): Direction du vent: 19.02.2018 10:00:00 - 25.02.2018 10:00:00 (CET)Barth, Allemagne (10180): reduced air pressure: 19.02.2018 10:00:00 - 25.02.2018 10:00:00 (CET)Barth, Allemagne (10180): visibility: 19.02.2018 10:00:00 - 25.02.2018 10:00:00 (CET)Barth, Allemagne (10180): Ensoleillement: 19.02.2018 10:00:00 - 25.02.2018 10:00:00 (CET)Barth, Allemagne (10180): Quantités de précipitations: 19.02.2018 10:00:00 - 25.02.2018 10:00:00 (CET)
Date & Time tt [°C] td [°C] tt 5cm [°C] tt -5cm [°C] tt -20cm [°C] tt -100cm [°C] ff [km/h] ff [knt] fx [km/h] fx [knt] dd ppp [hPa] vv [km] sd [min] rr [mm]
25.02.2018 10:00:00 -2,8 -5,3 -2,4 -0,4 0,4 3,8 17 9 32 17 NE 1034,1 12 0 0,4
25.02.2018 09:00:00 -3,2 -4,9 -2,9 -0,5 0,4 3,8 21 12 35 19 NNE 1034,2 9 0 0,2
25.02.2018 08:00:00 -2,9 -4,9 -3,3 -0,6 0,4 3,8 7 4 28 15 NNE 1034,1 13 0 0,0
25.02.2018 07:00:00 -3,4 -4,4 -4,0 -0,7 0,4 3,8 3 1 19 10 ENE 1034,1 7 0 0,2
25.02.2018 06:00:00 -2,8 -4,5 -3,3 -0,9 0,4 3,8 10 6 18 10 NE 1034,2 10 0 0,1
25.02.2018 05:00:00 -4,4 -5,4 -4,2 -1,1 0,4 3,8 4 2 8 4 NNW 1034,4 3,5 0 0,1
25.02.2018 04:00:00 -6,2 -7,1 -8,3 -1,6 0,4 3,8 5 3 8 4 W 1034,5 18 0 0,0
25.02.2018 03:00:00 -5,1 -6,8 -6,2 -1,5 0,4 3,8 4 2 11 6 W 1034,7 31 0 0,0
25.02.2018 02:00:00 -6,2 -7,6 -7,8 -1,7 0,4 3,8 7 4 12 6 NNE 1034,9 38 0 0,0
25.02.2018 01:00:00 -6,9 -7,9 -9,3 -1,7 0,4 3,8 5 3 11 6 NNE 1035,0 27 0 0,0
25.02.2018 00:00:00 -7,3 -8,4 -10,1 -1,7 0,4 3,8 8 4 10 6 E 1035,2 28 0 0,0
24.02.2018 23:00:00 -6,8 -8,1 -9,6 -1,5 0,4 3,8 2 1 16 9 N 1035,2 34 0 0,0
24.02.2018 22:00:00 -4,9 -6,6 -7,0 -1,3 0,4 3,8 12 7 23 13 E 1035,2 40 0 0,0
24.02.2018 21:00:00 -5,6 -7,3 -9,3 -1,0 0,4 3,8 9 5 16 9 E 1035,0 50 0 0,0
24.02.2018 20:00:00 -4,6 -7,0 -7,0 -0,6 0,4 3,8 13 7 29 16 E 1034,9 66 0 0,0
24.02.2018 19:00:00 -3,3 -5,5 -4,4 -0,2 0,4 3,8 19 10 29 16 E 1035,0 52 0 0,0
24.02.2018 18:00:00 -3,2 -5,3 -3,8 -0,1 0,4 3,8 20 11 42 23 E 1034,8 55 0 0,0
24.02.2018 17:00:00 -2,8 -5,2 -3,2 -0,1 0,4 3,8 24 13 38 20 E 1034,6 31 31 0,0
24.02.2018 16:00:00 -1,7 -6,6 -1,9 -0,1 0,4 3,8 20 11 51 28 ENE 1034,4 66 28 0,0
24.02.2018 15:00:00 -0,9 -6,1 0,1 -0,1 0,4 3,8 25 13 47 25 E 1034,1 38 28 0,0
24.02.2018 14:00:00 -0,3 -8,5 0,3 -0,1 0,4 3,8 25 14 51 27 ENE 1033,9 33 55 0,0
24.02.2018 13:00:00 0,5 -7,7 3,0 -0,1 0,4 3,8 25 14 42 23 ENE 1033,8 22 34 0,0
24.02.2018 12:00:00 0,5 -7,4 3,0 -0,2 0,4 3,8 22 12 41 22 ENE 1033,9 52 28 0,0
24.02.2018 11:00:00 -0,8 -6,4 0,0 -0,2 0,4 3,8 26 14 44 24 ENE 1033,9 31 33 0,0
24.02.2018 10:00:00 -0,9 -7,5 -0,6 -0,3 0,4 3,8 33 18 48 26 ENE 1033,5 21 34 0,0
24.02.2018 09:00:00 -0,7 -6,9 0,0 -0,5 0,4 3,8 23 13 37 20 ENE 1033,1 34 34 0,0
24.02.2018 08:00:00 -1,4 -7,9 -2,3 -0,8 0,4 3,8 24 13 38 21 ENE 1032,8 65 19 0,0
24.02.2018 07:00:00 -1,3 -7,3 -2,4 -0,5 0,4 3,8 22 12 36 19 ENE 1032,2 70 0 0,0
24.02.2018 06:00:00 -0,6 -6,2 -1,2 -0,3 0,4 3,8 25 13 38 20 ENE 1031,8 65 0 0,0
24.02.2018 05:00:00 -0,1 -5,1 -0,5 -0,2 0,4 3,8 18 10 28 15 ENE 1031,1 47 0 0,0
24.02.2018 04:00:00 0,1 -4,7 -0,4 -0,2 0,4 3,8 16 9 36 19 ENE 1030,5 42 0 0,0
24.02.2018 03:00:00 0,3 -3,5 -0,1 -0,2 0,4 3,8 17 9 33 18 ENE 1030,1 54 0 0,0
24.02.2018 02:00:00 -0,1 -2,5 -0,3 -0,1 0,4 3,8 16 9 27 15 NE 1030,0 18 0 0,0
24.02.2018 01:00:00 -0,3 -2,8 -0,5 -0,1 0,4 3,8 11 6 31 17 ENE 1029,7 29 0 0,0
24.02.2018 00:00:00 -0,2 -2,8 -0,4 -0,1 0,4 3,8 13 7 26 14 NE 1029,5 23 0 0,0
23.02.2018 23:00:00 0,0 -2,8 -0,3 -0,1 0,4 3,8 17 9 29 15 NE 1029,4 23 0 0,0
23.02.2018 22:00:00 -1,4 -3,7 -1,7 -0,1 0,4 3,8 3 2 10 5 NW 1029,1 15 0 0,0
23.02.2018 21:00:00 -2,1 -4,3 -2,3 -0,1 0,4 3,8 3 2 5 3 NNE 1028,9 17 0 0,0
23.02.2018 20:00:00 -3,8 -6,0 -4,2 -0,1 0,4 3,8 3 2 9 5 NNW 1028,9 16 0 0,0
23.02.2018 19:00:00 -5,3 -7,1 -6,9 -0,1 0,4 3,8 6 4 9 5 N 1029,0 12 0 0,0
23.02.2018 18:00:00 -2,5 -6,4 -6,2 -0,1 0,3 3,8 5 3 11 6 N 1028,8 19 21 0,0
23.02.2018 17:00:00 -1,2 -7,1 -2,8 -0,1 0,3 3,8 6 3 13 7 NE 1028,6 22 57 0,0
23.02.2018 16:00:00 -0,1 -6,5 2,2 -0,1 0,3 3,8 7 4 18 10 NE 1028,7 17 60 0,0
23.02.2018 15:00:00 -0,1 -7,5 2,4 -0,1 0,3 3,8 11 6 24 13 E 1029,0 21 60 0,0
23.02.2018 14:00:00 -0,3 -7,5 2,1 -0,1 0,3 3,8 14 8 25 14 E 1029,0 14 60 0,0
23.02.2018 13:00:00 -0,5 -7,0 2,6 -0,2 0,3 3,8 10 6 25 13 ESE 1029,4 14 60 0,0
23.02.2018 12:00:00 -1,0 -6,5 1,3 -0,2 0,3 3,8 14 8 30 16 ESE 1029,6 11 60 0,0
23.02.2018 11:00:00 -1,7 -6,9 0,1 -0,3 0,3 3,8 18 10 30 16 E 1029,7 10 60 0,0
23.02.2018 10:00:00 -2,0 -6,6 -0,3 -0,5 0,3 3,8 19 10 28 15 E 1029,5 12 60 0,0
23.02.2018 09:00:00 -3,0 -6,9 -1,9 -0,9 0,3 3,8 17 9 27 15 E 1029,1 11 60 0,0
23.02.2018 08:00:00 -4,1 -7,5 -5,2 -1,3 0,3 3,8 14 8 20 11 E 1028,8 11 19 0,0
23.02.2018 07:00:00 -4,9 -8,1 -7,0 -1,3 0,3 3,8 15 8 20 11 E 1028,4 11 0 0,0
23.02.2018 06:00:00 -4,6 -7,7 -6,5 -1,1 0,3 3,8 13 7 22 12 E 1028,1 12 0 0,0
23.02.2018 05:00:00 -4,6 -7,6 -7,0 -0,9 0,3 3,8 13 7 22 12 E 1027,9 18 0 0,0
23.02.2018 04:00:00 -3,4 -6,6 -6,3 -0,7 0,3 3,8 12 6 23 12 E 1027,8 25 0 0,0
23.02.2018 03:00:00 -2,6 -6,7 -4,5 -0,4 0,3 3,8 14 8 20 11 ENE 1028,1 30 0 0,0
23.02.2018 02:00:00 -3,0 -6,0 -5,5 -0,1 0,3 3,8 13 7 21 11 E 1028,3 27 0 0,0
23.02.2018 01:00:00 -3,0 -5,7 -5,5 -0,1 0,3 3,8 12 7 26 14 E 1028,4 22 0 0,0
23.02.2018 00:00:00 -1,8 -4,8 -2,7 -0,1 0,3 3,8 18 10 29 16 E 1028,4 20 0 0,0
22.02.2018 23:00:00 -1,1 -4,9 -2,1 -0,1 0,3 3,8 21 12 30 16 E 1028,4 24 0 0,0
22.02.2018 22:00:00 -1,0 -4,1 -1,7 -0,1 0,3 3,8 18 10 27 15 E 1028,0 21 0 0,0
22.02.2018 21:00:00 -0,4 -3,0 -0,8 -0,1 0,3 3,8 18 10 24 13 E 1027,7 18 0 0,0
22.02.2018 20:00:00 -0,2 -2,6 -0,6 -0,1 0,3 3,8 17 9 28 15 E 1027,6 13 0 0,0
22.02.2018 19:00:00 0,0 -2,1 -0,3 -0,1 0,3 3,8 14 8 24 13 E 1027,2 8 0 0,0
22.02.2018 18:00:00 -0,6 -2,9 -2,4 -0,1 0,3 3,8 12 6 21 11 ENE 1027,1 13 0 0,0
22.02.2018 17:00:00 0,5 -3,5 -0,8 -0,1 0,3 3,8 14 8 23 13 ENE 1026,7 44 0 0,0
22.02.2018 16:00:00 1,4 -2,8 1,3 -0,1 0,3 3,8 15 8 27 15 ENE 1026,7 44 0 0,0
22.02.2018 15:00:00 2,0 -1,8 2,8 -0,1 0,3 3,8 15 8 29 15 NE 1026,8 48 12 0,0
22.02.2018 14:00:00 2,8 -1,9 6,6 -0,1 0,3 3,8 17 9 27 14 NE 1027,1 17 47 0,0
22.02.2018 13:00:00 1,3 -1,9 1,3 -0,1 0,3 3,8 13 7 21 12 NE 1027,4 47 23 0,0
22.02.2018 12:00:00 1,4 -2,4 2,6 -0,1 0,3 3,8 16 8 26 14 NE 1027,6 31 43 0,0
22.02.2018 11:00:00 1,0 -1,4 1,8 -0,1 0,3 3,8 10 6 19 11 NE 1027,8 26 0 0,1
22.02.2018 10:00:00 0,3 -0,4 0,6 -0,1 0,3 3,8 9 5 14 8 NE 1027,7 6 0 0,1
22.02.2018 09:00:00 0,1 -0,3 0,0 -0,1 0,3 3,8 5 3 16 8 NE 1027,4 2,7 0 0,2
22.02.2018 08:00:00 0,2 -0,1 -0,1 -0,1 0,3 3,8 4 2 9 5 NE 1027,3 2,4 0 0,1
22.02.2018 07:00:00 -0,8 -0,8 -0,8 -0,1 0,3 3,8 5 3 10 5 NW 1027,0 2,1 0 0,2
22.02.2018 06:00:00 -0,5 -0,9 -0,8 -0,1 0,3 3,8 7 4 9 5 NNW 1027,1 3,2 0 0,0
22.02.2018 05:00:00 -2,1 -2,4 -2,2 -0,1 0,3 3,9 6 3 7 4 NNW 1027,0 3,1 0 0,0
22.02.2018 04:00:00 -2,1 -2,5 -2,2 -0,1 0,3 3,9 4 2 8 4 W 1027,2 4,1 0 0,0
22.02.2018 03:00:00 -2,5 -3,0 -2,8 -0,1 0,3 3,9 4 2 8 4 W 1027,3 4,1 0 0,0
22.02.2018 02:00:00 -3,9 -4,1 -3,9 -0,1 0,3 3,9 4 2 8 4 WSW 1027,6 2,8 0 0,0
22.02.2018 01:00:00 -5,2 -5,6 -5,7 0,0 0,3 3,9 3 2 5 3 SW 1027,8 0,2 0 0,0
22.02.2018 00:00:00 -4,3 -4,3 -6,0 0,0 0,3 3,9 4 2 6 3 S 1027,8 0,4 0 0,0
21.02.2018 23:00:00 -5,0 -5,5 -7,1 0,0 0,3 3,9 3 2 5 3 SSW 1027,8 0,2 0 0,0
21.02.2018 22:00:00 -4,8 -5,0 -6,8 0,0 0,3 3,9 3 1 5 3 SW 1027,9 0,3 0 0,0
21.02.2018 21:00:00 -4,0 -4,3 -5,3 0,0 0,3 3,9 3 2 5 3 SSW 1027,7 4,8 0 0,0
21.02.2018 20:00:00 -4,5 -4,9 -7,0 0,0 0,3 3,9 5 3 8 5 W 1027,6 1,9 0 0,0
21.02.2018 19:00:00 -4,0 -4,7 -6,9 0,0 0,3 3,9 3 2 12 6 WNW 1027,3 2,2 0 0,0
21.02.2018 18:00:00 -1,6 -2,1 -5,9 0,0 0,3 3,9 0 0 8 4 N 1027,0 7 0 0,0
21.02.2018 17:00:00 0,4 -1,6 -2,7 0,0 0,3 3,9 4 2 16 9 N 1026,9 14 0 0,0
21.02.2018 16:00:00 1,8 -1,8 1,9 0,0 0,3 3,9 7 4 13 7 N 1026,9 27 0 0,0
21.02.2018 15:00:00 1,8 -1,6 2,6 0,0 0,3 3,9 10 5 14 8 E 1027,1 22 12 0,0
21.02.2018 14:00:00 2,0 -0,8 5,8 -0,1 0,3 3,9 6 3 16 9 E 1027,5 25 9 0,0
21.02.2018 13:00:00 2,0 -0,8 5,0 -0,1 0,3 3,9 10 6 30 16 NE 1027,8 17 47 0,0
21.02.2018 12:00:00 1,7 -0,2 4,5 -0,1 0,3 3,9 16 9 28 15 NNE 1027,8 18 51 0,0
21.02.2018 11:00:00 2,2 0,2 2,7 -0,1 0,3 3,9 6 3 11 6 NE 1027,4 13 14 0,0
21.02.2018 10:00:00 0,5 -0,3 1,4 -0,1 0,3 3,9 3 2 8 4 NW 1027,4 4,6 3 0,0
21.02.2018 09:00:00 -2,3 -2,9 -1,4 -0,2 0,3 3,9 0 0 6 3 N 1027,0 3,4 3 0,0
21.02.2018 08:00:00 -4,4 -4,5 -6,2 -0,4 0,3 3,9 3 2 5 3 S 1026,7 0,7 0 0,0
21.02.2018 07:00:00 -6,2 -6,9 -7,9 -0,3 0,3 3,9 2 1 4 2 WNW 1026,7 0,2 0 0,0
21.02.2018 06:00:00 -5,5 -5,8 -7,3 -0,1 0,3 3,9 3 1 4 2 NW 1026,6 0,1 0 0,0
21.02.2018 05:00:00 -3,9 -4,1 -7,2 -0,1 0,3 3,9 2 1 6 4 NNW 1026,6 1,8 0 0,0
21.02.2018 04:00:00 -2,9 -3,9 -6,5 0,0 0,3 3,9 5 3 13 7 N 1026,6 3,6 0 0,0
21.02.2018 03:00:00 -0,2 -1,7 -4,1 0,0 0,3 3,9 7 4 10 6 ENE 1026,5 6 0 0,0
21.02.2018 02:00:00 -0,5 -2,3 -2,9 0,0 0,3 3,9 4 2 15 8 NE 1026,6 7 0 0,0
21.02.2018 01:00:00 1,1 -1,3 0,3 0,0 0,3 3,9 10 6 16 9 NE 1026,4 8 0 0,0
21.02.2018 00:00:00 0,9 -2,2 -0,1 0,0 0,2 3,9 10 5 16 8 NE 1026,3 14 0 0,0
20.02.2018 23:00:00 0,7 -2,6 -0,3 0,0 0,2 3,9 11 6 18 10 NE 1026,0 15 0 0,0
20.02.2018 22:00:00 -0,5 -3,1 -5,8 0,0 0,2 3,9 8 4 17 9 NE 1025,6 14 0 0,0
20.02.2018 21:00:00 -0,6 -3,6 -3,7 0,0 0,2 3,9 10 5 17 9 ENE 1025,2 13 0 0,0
20.02.2018 20:00:00 -0,7 -3,6 -4,7 0,0 0,2 3,9 9 5 15 8 NE 1025,0 11 0 0,0
20.02.2018 19:00:00 -0,7 -3,5 -5,4 0,0 0,2 3,9 9 5 15 8 ENE 1024,6 10 0 0,0
20.02.2018 18:00:00 -0,6 -4,1 -4,2 0,0 0,2 3,9 12 7 24 13 ENE 1024,0 11 11 0,0
20.02.2018 17:00:00 0,9 -4,5 0,0 0,0 0,2 3,9 19 11 36 19 E 1023,5 12 60 0,0
20.02.2018 16:00:00 2,4 -4,5 2,7 0,4 0,2 3,9 27 15 42 23 E 1023,2 12 60 0,0
20.02.2018 15:00:00 3,2 -5,3 4,1 0,2 0,2 3,9 27 15 41 22 E 1023,1 13 60 0,0
20.02.2018 14:00:00 3,3 -5,5 4,7 0,0 0,2 3,9 29 15 40 22 E 1023,1 12 59 0,0
20.02.2018 13:00:00 3,1 -4,5 4,0 0,0 0,2 3,9 22 12 40 22 ESE 1022,9 11 59 0,0
20.02.2018 12:00:00 3,2 -1,6 5,0 0,0 0,2 3,9 21 11 33 18 E 1023,2 9 60 0,0
20.02.2018 11:00:00 1,9 -1,5 3,0 0,0 0,2 3,9 21 12 30 16 E 1023,0 6 60 0,0
20.02.2018 10:00:00 1,0 -1,3 2,0 0,0 0,2 3,9 16 8 21 12 ENE 1022,7 4,4 60 0,0
20.02.2018 09:00:00 -0,3 -2,0 -0,4 0,0 0,2 3,9 11 6 15 8 E 1022,7 3,9 36 0,0
20.02.2018 08:00:00 -2,1 -3,1 -4,4 0,0 0,2 3,9 10 6 17 9 E 1022,4 3,2 0 0,0
20.02.2018 07:00:00 -2,7 -3,8 -6,8 0,0 0,2 3,9 13 7 19 10 E 1022,0 3,2 0 0,0
20.02.2018 06:00:00 -1,9 -3,2 -3,2 0,0 0,2 3,9 16 8 21 12 E 1021,9 3,0 0 0,0
20.02.2018 05:00:00 -2,2 -3,6 -3,7 0,0 0,2 3,9 16 9 20 11 E 1021,7 3,5 0 0,0
20.02.2018 04:00:00 -2,2 -3,3 -5,5 0,0 0,2 3,9 9 5 13 7 E 1021,5 3,5 0 0,0
20.02.2018 03:00:00 -2,2 -3,4 -4,1 0,0 0,2 3,9 9 5 14 8 E 1021,4 3,4 0 0,0
20.02.2018 02:00:00 -1,2 -2,6 -2,3 0,0 0,2 3,9 10 6 15 8 ESE 1021,2 4,1 0 0,0
20.02.2018 01:00:00 -0,8 -2,2 -1,9 0,0 0,2 3,9 10 5 18 10 E 1021,3 4,7 0 0,0
20.02.2018 00:00:00 -0,5 -2,0 -1,6 0,0 0,2 3,9 12 6 16 9 E 1021,0 4,8 0 0,0
19.02.2018 23:00:00 -0,4 -1,8 -2,7 0,0 0,2 3,9 8 5 13 7 ESE 1020,6 5 0 0,0
19.02.2018 22:00:00 -1,5 -2,8 -3,2 0,0 0,2 3,9 7 4 9 5 E 1020,6 4,4 0 0,0
19.02.2018 21:00:00 0,2 -1,6 -1,5 0,0 0,2 3,9 3 2 10 5 S 1020,6 7 0 0,0
19.02.2018 20:00:00 1,5 -1,4 0,0 0,0 0,2 3,9 7 4 13 7 SE 1020,6 8 0 0,0
19.02.2018 19:00:00 1,7 -1,2 0,4 -0,3 0,2 3,9 8 4 13 7 SE 1020,6 8 0 0,0
19.02.2018 18:00:00 1,6 -1,1 -0,8 0,0 0,2 3,9 7 4 11 6 SE 1020,3 9 0 0,0
19.02.2018 17:00:00 3,1 -0,7 1,7 0,7 0,2 3,9 5 3 9 5 SE 1020,3 9 0 0,0
19.02.2018 16:00:00 4,0 -1,1 3,7 0,8 0,2 3,9 3 2 9 5 SSE 1020,2 10 0 0,0
19.02.2018 15:00:00 4,3 -1,0 4,4 0,4 0,2 4,0 6 3 10 6 SSW 1020,3 10 46 0,0
19.02.2018 14:00:00 4,1 -1,3 5,8 0,0 0,2 4,0 9 5 16 8 S 1020,5 11 60 0,0
19.02.2018 13:00:00 3,3 -1,4 5,6 0,0 0,2 4,0 9 5 14 7 S 1020,7 10 60 0,0
19.02.2018 12:00:00 2,5 -1,2 4,8 0,0 0,2 4,0 9 5 15 8 S 1021,1 10 59 0,0
19.02.2018 11:00:00 1,1 -2,2 1,9 0,0 0,2 4,0 10 6 19 10 S 1021,4 9 55 0,0
19.02.2018 10:00:00 0,7 -2,3 2,0 0,0 0,2 4,0 10 6 16 9 S 1021,5 8 48 0,0

tt = Température de l'air
td = dewpoint
tt 5cm = Température de l'air 5cm
tt -5cm = Température de l'air -5cm
tt -20cm = Température de l'air -20cm
tt -100cm = Température de l'air -100cm
ff = Vitesse du vent
fx = gusts
dd = Direction du vent
ppp = reduced air pressure
vv = visibility
sd = Ensoleillement
rr = Quantités de précipitations

stations d'obs. à proximité